[[{"header":{"parameterUnit":"m.s-1","parameterCategory":2,"la1":30.2992,"la2":30.254,"lo1":-89.0895,"lo2":-89.0443,"dy":0.0025,"dx":0.0025,"nx":19,"ny":19,"refTime":"2026-04-19T03:00:00:Z","depth":"0","parameterNumber":2,"parameterNumberName":"U-component_of_CURRENTS"},"data":[0,0,0,0.2955,0.2956,0.2996,0.2996,0.304,0.304,0,0,0,0,0,0,0,0,0,0,0,0.2934,0.2935,0.2955,0.2956,0.2996,0.2996,0.3039,0.304,0,0,0,0,0,0,0,0,0,0,0,0.2934,0.2934,0.2935,0.2956,0.2996,0.2996,0.3039,0.3009,0,0,0,0,0,0,0,0,0,0,0.297,0.2953,0.2934,0.2935,0.2957,0.2996,0.2996,0.3007,0.301,0.3023,0,0.3033,0,0.3046,0.3044,0.3044,0,0,0,0.2946,0.295,0.2967,0.2935,0.2957,0.2996,0.2975,0.3009,0.3013,0.3027,0.3033,0.3035,0.3046,0.3044,0.3044,0.3144,0.3145,0,0,0.2943,0.2935,0.2964,0.297,0.2973,0.2974,0.2976,0.3011,0.3014,0.3034,0.3037,0.3047,0.3044,0.3045,0.3143,0.3144,0,0,0,0.2944,0.2933,0.2949,0.2967,0.298,0.2975,0.2978,0.3012,0.3019,0.3037,0.3048,0.3045,0.3045,0.3143,0.3144,0.317,0,0,0,0.2942,0.2935,0.2948,0.2943,0.298,0.2998,0.2978,0.3016,0.3021,0.3047,0.3045,0.3046,0.3142,0.3143,0.3168,0.3201,0,0,0,0.2931,0.2934,0.2941,0.2942,0.2966,0.2998,0.3006,0.3017,0.3028,0.3044,0.3046,0.3141,0.3143,0.3166,0.3197,0.325,0,0,0,0.2917,0.293,0.2941,0.2964,0.2966,0.3014,0.3006,0.3035,0.305,0.3045,0.3142,0.3144,0.3165,0.3195,0.3247,0.3222,0.3233,0,0,0.2925,0.293,0.2947,0.2958,0.3,0.3007,0.3062,0.3073,0.3081,0.3126,0.3129,0.3168,0.3197,0.325,0.3315,0.3323,0,0,0,0.2944,0.2947,0.2966,0.2992,0.3033,0.3076,0.3089,0.3116,0.3159,0.31,0.3194,0.3212,0.3244,0.3224,0.3231,0.3174,0.3151,0.3151,0.3151,0.291,0.2943,0.2965,0.3007,0.3051,0.3123,0.317,0.3211,0.3198,0.3231,0.3251,0.3337,0.3316,0.3321,0.3262,0.326,0.3261,0.3261,0.3261,0.2895,0.2899,0.2954,0.2986,0.3059,0.3116,0.3239,0.3262,0.3351,0.3316,0.3345,0.3275,0.333,0.3265,0.3263,0.3262,0.3262,0.3262,0.3262,0.2846,0.2854,0.2879,0.2934,0.3012,0.3119,0.3231,0.3326,0.3389,0.3429,0.3414,0.3412,0.3341,0.3439,0.3439,0.3439,0.344,0.344,0.344,0.278,0.2809,0.2816,0.2887,0.2925,0.3044,0.3229,0.3313,0.3433,0.347,0.3469,0.3372,0.3392,0.3369,0.3446,0.3445,0.3444,0.3444,0.3443,0.2713,0.2733,0.2742,0.2765,0.2853,0.2895,0.3104,0.3289,0.341,0.3467,0.3444,0.3493,0.349,0.3483,0.3463,0.3561,0.3561,0.3561,0.3561,0.2658,0.2674,0.2657,0.2672,0.2725,0.2824,0.2881,0.3071,0.3307,0.3379,0.3461,0.3388,0.3386,0.3373,0.3369,0.3345,0.341,0.341,0.341,0.2609,0.2622,0.2575,0.26,0.2643,0.2704,0.2696,0.2816,0.317,0.3398,0.3392,0.3398,0.3283,0.3284,0.3254,0.3252,0.3209,0,0]},{"header":{"parameterUnit":"m.s-1","parameterCategory":2,"la1":30.2992,"la2":30.254,"lo1":-89.0895,"lo2":-89.0443,"dy":0.0025,"dx":0.0025,"nx":19,"ny":19,"refTime":"2026-04-19T03:00:00:Z","depth":"0","parameterNumber":3,"parameterNumberName":"V-component_of_CURRENTS"},"data":[0,0,0,0.011,0.0109,0.0076,0.0075,0.0019,0.0018,0,0,0,0,0,0,0,0,0,0,0,0.0121,0.0121,0.011,0.0109,0.0076,0.0075,0.0019,0.0018,0,0,0,0,0,0,0,0,0,0,0,0.0121,0.0121,0.0121,0.0109,0.0076,0.0075,0.0019,0.0045,0,0,0,0,0,0,0,0,0,0,0.0079,0.0095,0.0121,0.0121,0.0109,0.0076,0.0075,0.0047,0.0044,0.0033,0,0.0034,0,0.0028,0.0015,0.0015,0,0,0,0.01,0.0098,0.009,0.0121,0.0109,0.0076,0.0088,0.0045,0.0042,0.0029,0.0033,0.0031,0.0027,0.0015,0.0014,0.0032,0.0032,0,0,0.0102,0.0111,0.0092,0.0088,0.0108,0.0089,0.0087,0.0043,0.0042,0.0033,0.0029,0.0026,0.0014,0.0014,0.0031,0.0032,0,0,0,0.0114,0.0113,0.0106,0.009,0.0088,0.0089,0.0086,0.0044,0.0042,0.0029,0.0026,0.0014,0.0013,0.0031,0.0032,0.0139,0,0,0,0.0114,0.012,0.0107,0.0111,0.0089,0.0067,0.0088,0.0045,0.004,0.0026,0.0014,0.0013,0.003,0.0031,0.0135,0.0198,0,0,0,0.0121,0.012,0.0119,0.0112,0.0101,0.0068,0.0063,0.0044,0.0038,0.0015,0.0013,0.003,0.0031,0.0131,0.0191,0.0241,0,0,0,0.0127,0.0155,0.012,0.0152,0.0102,0.0126,0.0064,0.0065,0.0052,0.0014,0.003,0.0031,0.013,0.0186,0.0236,0.0323,0.035,0,0,0.0172,0.016,0.0183,0.0151,0.0204,0.0129,0.0177,0.0124,0.0067,0.004,0.0041,0.0136,0.019,0.024,0.0399,0.0424,0,0,0,0.0205,0.0225,0.0234,0.0252,0.0245,0.0255,0.0194,0.0169,0.0142,0.0066,0.0133,0.0164,0.0192,0.0234,0.0254,0.0129,0.0038,0.0037,0.0037,0.0282,0.0286,0.0341,0.0347,0.0356,0.0337,0.0337,0.029,0.0217,0.0219,0.0249,0.0358,0.0405,0.0421,0.0291,0.0236,0.0236,0.0236,0.0237,0.038,0.042,0.0424,0.0474,0.0474,0.0501,0.0475,0.0432,0.0422,0.0341,0.0362,0.0342,0.045,0.0302,0.0243,0.0242,0.0241,0.0241,0.024,0.0439,0.0464,0.0483,0.0559,0.0621,0.0619,0.0701,0.0641,0.0541,0.056,0.0575,0.0574,0.0445,0.0562,0.0562,0.0563,0.0563,0.0564,0.0564,0.0493,0.0521,0.0589,0.0659,0.0724,0.0816,0.0832,0.0837,0.0795,0.0714,0.0714,0.048,0.0457,0.0446,0.0572,0.057,0.0569,0.0569,0.0568,0.0579,0.0582,0.0697,0.0765,0.093,0.1091,0.1086,0.1121,0.1065,0.1067,0.0729,0.0782,0.0755,0.0738,0.0733,0.0926,0.0926,0.0926,0.0926,0.0632,0.0643,0.08,0.0935,0.1105,0.1223,0.1406,0.1395,0.1129,0.0957,0.0802,0.0726,0.0717,0.068,0.0664,0.0653,0.0821,0.0821,0.082,0.0698,0.0739,0.086,0.0986,0.1184,0.138,0.1574,0.1629,0.118,0.0796,0.0612,0.0617,0.0476,0.0472,0.0386,0.0374,0.0345,0,0]}],[{"header":{"parameterUnit":"m.s-1","parameterCategory":2,"la1":30.2992,"la2":30.254,"lo1":-89.0895,"lo2":-89.0443,"dy":0.0025,"dx":0.0025,"nx":19,"ny":19,"refTime":"2026-04-19T03:00:00:Z","depth":"2","parameterNumber":2,"parameterNumberName":"U-component_of_CURRENTS"},"data":[0,0,0,0.286,0.2861,0.2912,0.2912,0.2962,0.2962,0,0,0,0,0,0,0,0,0,0,0,0.2837,0.2838,0.2859,0.2861,0.2912,0.2912,0.2961,0.2962,0,0,0,0,0,0,0,0,0,0,0,0.2837,0.2838,0.2838,0.2861,0.2912,0.2912,0.2961,0.2925,0,0,0,0,0,0,0,0,0,0,0.2876,0.286,0.2838,0.2838,0.2862,0.2912,0.2912,0.2923,0.2927,0.2937,0,0.295,0,0.2964,0.2966,0.2966,0,0,0,0.2852,0.2857,0.2875,0.2838,0.2862,0.2912,0.2886,0.2925,0.293,0.2943,0.2951,0.2953,0.2965,0.2966,0.2967,0.3067,0.3067,0,0,0.2849,0.2842,0.2872,0.2878,0.2883,0.2885,0.2888,0.2928,0.2933,0.2952,0.2955,0.2966,0.2967,0.2967,0.3066,0.3067,0,0,0,0.2847,0.284,0.2856,0.2875,0.289,0.2886,0.289,0.2931,0.2938,0.2956,0.2966,0.2967,0.2968,0.3065,0.3066,0.3096,0,0,0,0.2845,0.284,0.2855,0.2851,0.2889,0.2914,0.2892,0.2935,0.294,0.2966,0.2967,0.2968,0.3064,0.3066,0.3094,0.3127,0,0,0,0.2834,0.2838,0.2847,0.285,0.2878,0.2913,0.2922,0.2936,0.2947,0.2966,0.2968,0.3064,0.3065,0.3091,0.3123,0.3173,0,0,0,0.282,0.2836,0.2847,0.2874,0.2877,0.2927,0.2922,0.2956,0.2974,0.2967,0.3065,0.3066,0.3091,0.312,0.3171,0.3123,0.3132,0,0,0.2831,0.2837,0.2854,0.2865,0.2908,0.2919,0.2976,0.2994,0.3003,0.3047,0.3049,0.3094,0.3122,0.3173,0.3214,0.3221,0,0,0,0.2852,0.2857,0.2876,0.2903,0.2944,0.2989,0.3008,0.3035,0.3082,0.3024,0.3118,0.3136,0.3166,0.3132,0.3138,0.3074,0.3073,0.3073,0.3073,0.2827,0.2857,0.2881,0.292,0.2965,0.3038,0.3087,0.313,0.3119,0.3155,0.3177,0.3262,0.3226,0.3229,0.3186,0.3186,0.3186,0.3186,0.3186,0.2817,0.2822,0.2874,0.2907,0.2979,0.3038,0.3158,0.3184,0.3273,0.3241,0.3268,0.3186,0.3237,0.3189,0.3188,0.3188,0.3188,0.3188,0.3187,0.2774,0.2782,0.2808,0.2864,0.2944,0.3048,0.3157,0.3252,0.3315,0.3354,0.3323,0.3321,0.3282,0.3364,0.3365,0.3365,0.3366,0.3366,0.3366,0.2714,0.2743,0.2753,0.2824,0.2864,0.2981,0.3161,0.3241,0.3348,0.3378,0.3378,0.3323,0.3317,0.3294,0.3372,0.3371,0.337,0.337,0.3369,0.2654,0.2674,0.2685,0.271,0.2797,0.2827,0.3034,0.3199,0.3314,0.3358,0.3392,0.339,0.3383,0.3377,0.3356,0.3446,0.3446,0.3446,0.3446,0.2603,0.2618,0.2606,0.2621,0.267,0.2752,0.2765,0.2867,0.309,0.3144,0.3156,0.3066,0.3071,0.3041,0.3042,0.3012,0.3013,0.3011,0.301,0.2558,0.257,0.2528,0.2551,0.259,0.2622,0.2538,0.244,0.2632,0.2983,0.2972,0.3438,0.3337,0.3333,0.3309,0.3303,0.3264,0,0]},{"header":{"parameterUnit":"m.s-1","parameterCategory":2,"la1":30.2992,"la2":30.254,"lo1":-89.0895,"lo2":-89.0443,"dy":0.0025,"dx":0.0025,"nx":19,"ny":19,"refTime":"2026-04-19T03:00:00:Z","depth":"2","parameterNumber":3,"parameterNumberName":"V-component_of_CURRENTS"},"data":[0,0,0,0.0205,0.0204,0.0169,0.0169,0.0118,0.0117,0,0,0,0,0,0,0,0,0,0,0,0.0216,0.0216,0.0205,0.0204,0.0169,0.0169,0.0118,0.0117,0,0,0,0,0,0,0,0,0,0,0,0.0216,0.0216,0.0216,0.0204,0.0169,0.0169,0.0118,0.0144,0,0,0,0,0,0,0,0,0,0,0.0178,0.0192,0.0216,0.0216,0.0204,0.017,0.0169,0.0145,0.0142,0.0134,0,0.0133,0,0.0128,0.0114,0.0114,0,0,0,0.0196,0.0195,0.0187,0.0216,0.0204,0.017,0.0183,0.0143,0.014,0.013,0.0133,0.0131,0.0127,0.0114,0.0114,0.0131,0.0131,0,0,0.0198,0.0206,0.0189,0.0185,0.0201,0.0184,0.0182,0.0142,0.014,0.0132,0.0129,0.0126,0.0114,0.0113,0.013,0.0131,0,0,0,0.0209,0.0208,0.0201,0.0187,0.0184,0.0183,0.0181,0.0141,0.014,0.0129,0.0125,0.0113,0.0113,0.013,0.0131,0.023,0,0,0,0.021,0.0215,0.0202,0.0206,0.0185,0.0163,0.0181,0.0142,0.0138,0.0126,0.0113,0.0113,0.0129,0.013,0.0226,0.0288,0,0,0,0.0217,0.0215,0.0214,0.0206,0.0195,0.0164,0.0159,0.0141,0.0136,0.0114,0.0112,0.0129,0.013,0.0223,0.0281,0.0326,0,0,0,0.0223,0.0247,0.0214,0.0244,0.0195,0.0218,0.0159,0.016,0.0148,0.0113,0.0129,0.013,0.0222,0.0277,0.0322,0.0396,0.0421,0,0,0.0264,0.0252,0.0273,0.0243,0.0293,0.0222,0.0267,0.0216,0.0162,0.0139,0.0139,0.0228,0.0281,0.0325,0.0466,0.0489,0,0,0,0.0294,0.0313,0.0322,0.0338,0.0332,0.0341,0.0283,0.0259,0.0232,0.0161,0.0224,0.0255,0.028,0.0315,0.0334,0.0136,0.0136,0.0136,0.0136,0.0364,0.0369,0.0421,0.0429,0.0438,0.0419,0.0418,0.0372,0.0303,0.0303,0.0333,0.0434,0.0473,0.0488,0.0318,0.0319,0.0319,0.0319,0.032,0.0455,0.0494,0.05,0.0548,0.0549,0.0574,0.0549,0.0506,0.0495,0.0419,0.0437,0.0416,0.0514,0.0327,0.0326,0.0325,0.0324,0.0323,0.0323,0.0509,0.0534,0.0553,0.0627,0.0687,0.0686,0.0763,0.0705,0.0607,0.0623,0.0632,0.063,0.0499,0.0623,0.0624,0.0624,0.0625,0.0625,0.0625,0.0559,0.0586,0.0652,0.0721,0.0785,0.0874,0.0889,0.0891,0.0843,0.0763,0.0762,0.0536,0.0526,0.0516,0.0633,0.0631,0.0631,0.063,0.0629,0.0639,0.0643,0.0755,0.0822,0.0984,0.1134,0.1131,0.1153,0.1097,0.1092,0.0829,0.0822,0.0797,0.0781,0.0776,0.0954,0.0954,0.0954,0.0954,0.0689,0.0701,0.0853,0.0987,0.1151,0.1261,0.1411,0.1359,0.1197,0.1057,0.1052,0.0999,0.0984,0.0963,0.0943,0.0939,0.1159,0.1159,0.116,0.0752,0.0793,0.091,0.1036,0.1229,0.1407,0.1548,0.1471,0.121,0.1163,0.104,0.0977,0.0881,0.0865,0.0812,0.0789,0.0773,0,0]}],[{"header":{"parameterUnit":"m.s-1","parameterCategory":2,"la1":30.2992,"la2":30.254,"lo1":-89.0895,"lo2":-89.0443,"dy":0.0025,"dx":0.0025,"nx":19,"ny":19,"refTime":"2026-04-19T03:00:00:Z","depth":"4","parameterNumber":2,"parameterNumberName":"U-component_of_CURRENTS"},"data":[0,0,0,0.195,0.1953,0.2122,0.2122,0.2245,0.2246,0,0,0,0,0,0,0,0,0,0,0,0.1901,0.1902,0.1949,0.1954,0.2121,0.2122,0.2245,0.2246,0,0,0,0,0,0,0,0,0,0,0,0.19,0.1902,0.1904,0.1954,0.2121,0.2122,0.2245,0.2141,0,0,0,0,0,0,0,0,0,0,0.1989,0.1965,0.1901,0.1904,0.1955,0.2121,0.2122,0.2137,0.2147,0.2143,0,0.2185,0,0.2214,0.2252,0.2253,0,0,0,0.1953,0.1957,0.1993,0.1904,0.1957,0.2121,0.2046,0.2143,0.2155,0.2156,0.2187,0.2192,0.2216,0.2253,0.2253,0.2381,0.2382,0,0,0.1944,0.1935,0.1986,0.2001,0.202,0.204,0.2051,0.2152,0.2174,0.2187,0.2195,0.2218,0.2254,0.2254,0.238,0.2381,0,0,0,0.1918,0.1929,0.1965,0.1995,0.2031,0.2045,0.2057,0.217,0.2181,0.2197,0.2219,0.2254,0.2255,0.2379,0.238,0.2429,0,0,0,0.1912,0.1913,0.1961,0.1958,0.203,0.2117,0.2074,0.2175,0.2187,0.2218,0.2254,0.2256,0.2379,0.238,0.2426,0.2456,0,0,0,0.189,0.1911,0.1934,0.1957,0.2028,0.2117,0.2135,0.2178,0.22,0.2253,0.2256,0.2378,0.238,0.2423,0.2451,0.2495,0,0,0,0.1867,0.1903,0.1935,0.1989,0.2027,0.2117,0.2134,0.2217,0.2267,0.2255,0.2379,0.238,0.2423,0.2448,0.2492,0.2173,0,0,0,0.1887,0.1906,0.1934,0.1966,0.2038,0.2092,0.2185,0.2262,0.2288,0.2337,0.2341,0.2427,0.2451,0.2495,0.2275,0,0,0,0,0.1923,0.1944,0.1973,0.2032,0.2099,0.2187,0.2258,0.2302,0.2394,0.2327,0.2448,0.2462,0.2487,0.2293,0.2389,0.2388,0.2388,0.2388,0.2388,0.1914,0.1953,0.2002,0.2066,0.2138,0.2259,0.2338,0.2414,0.2424,0.2483,0.2516,0.2605,0.2402,0.2528,0.2528,0.2529,0.2529,0.2529,0.2529,0.1912,0.1928,0.2014,0.2081,0.2186,0.2287,0.243,0.2482,0.2599,0.2583,0.2606,0.2376,0.2535,0.2533,0.2533,0.2532,0.2532,0.2531,0.2531,0.1868,0.1879,0.1952,0.2059,0.219,0.2328,0.2445,0.2572,0.2653,0.2701,0.2501,0.2649,0.2628,0.2721,0.2721,0.2722,0.2722,0.2722,0.2723,0.1782,0.1848,0.1906,0.2036,0.2119,0.2265,0.2476,0.254,0.2657,0.2537,0.2731,0.267,0.2663,0.264,0.2728,0.2727,0.2726,0.2726,0.2725,0.1698,0.1757,0.1817,0.1893,0.2044,0.2115,0.2348,0.2401,0.2447,0.2411,0.2438,0.245,0.2406,0.2407,0.2372,0.2384,0.238,0.2377,0,0.1633,0.1666,0.1728,0.179,0.1848,0.2008,0.1991,0.2102,0.2213,0.2138,0.2459,0.2487,0.2494,0.2442,0.2437,0.2394,0,0,0,0.1578,0.161,0.1612,0.1691,0.1736,0.1805,0.1971,0.1936,0.2192,0.2147,0.2282,0.2307,0.2557,0.2744,0.2707,0.2699,0.266,0,0]},{"header":{"parameterUnit":"m.s-1","parameterCategory":2,"la1":30.2992,"la2":30.254,"lo1":-89.0895,"lo2":-89.0443,"dy":0.0025,"dx":0.0025,"nx":19,"ny":19,"refTime":"2026-04-19T03:00:00:Z","depth":"4","parameterNumber":3,"parameterNumberName":"V-component_of_CURRENTS"},"data":[0,0,0,0.0272,0.0272,0.0262,0.0262,0.0237,0.0237,0,0,0,0,0,0,0,0,0,0,0,0.0277,0.0277,0.0272,0.0272,0.0262,0.0262,0.0238,0.0237,0,0,0,0,0,0,0,0,0,0,0,0.0277,0.0277,0.0277,0.0272,0.0262,0.0262,0.0238,0.0247,0,0,0,0,0,0,0,0,0,0,0.0257,0.0267,0.0277,0.0277,0.0272,0.0262,0.0262,0.0247,0.0246,0.024,0,0.0243,0,0.024,0.0236,0.0236,0,0,0,0.0268,0.0268,0.0264,0.0277,0.0272,0.0262,0.0265,0.0247,0.0246,0.0238,0.0243,0.0242,0.024,0.0236,0.0235,0.0246,0.0246,0,0,0.0268,0.0274,0.0265,0.0264,0.0275,0.0265,0.0265,0.0246,0.0247,0.0242,0.0241,0.0239,0.0235,0.0235,0.0246,0.0246,0,0,0,0.0272,0.0274,0.0272,0.0265,0.0264,0.0265,0.0265,0.0248,0.0247,0.0241,0.0239,0.0235,0.0235,0.0245,0.0246,0.032,0,0,0,0.0273,0.0277,0.0272,0.0275,0.0265,0.0258,0.0267,0.0249,0.0246,0.0239,0.0235,0.0235,0.0245,0.0246,0.0317,0.0366,0,0,0,0.0276,0.0277,0.0278,0.0275,0.0273,0.0258,0.0256,0.0248,0.0245,0.0236,0.0235,0.0245,0.0245,0.0315,0.0361,0.0386,0,0,0,0.028,0.0298,0.0278,0.0302,0.0273,0.0294,0.0256,0.0263,0.0259,0.0235,0.0245,0.0246,0.0314,0.0358,0.0383,0.0389,0,0,0,0.0307,0.0301,0.0317,0.03,0.0339,0.0294,0.033,0.0303,0.0265,0.0249,0.0249,0.0318,0.0361,0.0385,0.0428,0,0,0,0,0.0329,0.0344,0.0352,0.0368,0.0369,0.0381,0.0347,0.0329,0.0313,0.0266,0.0311,0.0336,0.0349,0.0343,0.0249,0.0249,0.0249,0.0249,0.0249,0.0375,0.0382,0.0422,0.0434,0.0445,0.0438,0.044,0.0407,0.0362,0.0361,0.039,0.0454,0.0451,0.0373,0.0374,0.0374,0.0374,0.0374,0.0375,0.0435,0.0463,0.0479,0.052,0.0529,0.0554,0.0535,0.0506,0.0496,0.0446,0.0454,0.0415,0.0382,0.038,0.0379,0.0378,0.0378,0.0377,0.0377,0.0467,0.0486,0.0511,0.0578,0.0635,0.0643,0.0698,0.066,0.0581,0.0591,0.0564,0.0504,0.0504,0.0589,0.0589,0.059,0.059,0.059,0.0591,0.049,0.052,0.0579,0.0647,0.0707,0.0781,0.0799,0.0788,0.072,0.0662,0.0617,0.0526,0.0519,0.0516,0.0596,0.0595,0.0594,0.0594,0.0593,0.0531,0.0547,0.064,0.0705,0.0844,0.0896,0.0921,0.0874,0.0854,0.0799,0.0682,0.0677,0.065,0.064,0.0639,0.0759,0.076,0.076,0,0.0557,0.0571,0.07,0.0813,0.0925,0.0969,0.0975,0.0949,0.0842,0.0822,0.0834,0.0705,0.0699,0.0669,0.0661,0.0661,0,0,0,0.0591,0.0629,0.0721,0.0832,0.0961,0.0976,0.0976,0.0943,0.0861,0.0843,0.077,0.0768,0.071,0.0611,0.0556,0.0548,0.0539,0,0]}]]